Fort Meade, MD

7:59 AM EDT on March 26, 2017 (GMT -0400)
Tipton

Weather History for KFME - July, 2013

Change the Weather History Date:

Monday, July 8, 2013

  Actual Average (KBWI) Record (KBWI)
Temperature  
Mean Temperature 75 °F -  
Max Temperature 82 °F 87 °F 100 °F (1993)
Min Temperature 68 °F 65 °F 53 °F (2000)
Cooling Degree Days 10    
Growing Degree Days 25 (Base 50)    
Moisture  
Dew Point 68 °F    
Average Humidity 82    
Maximum Humidity 100    
Minimum Humidity 54    
Precipitation  
Precipitation 0.00 in - - ()
Sea Level Pressure  
Sea Level Pressure 30.10 in    
Wind  
Wind Speed 2 mph (WSW)    
Max Wind Speed 9 mph    
Max Gust Speed 17 mph    
Visibility 9 miles    
Events      
Averages and records for this station are not official NWS values.
T = Trace of Precipitation, MM = Missing Value Source: NWS Daily Summary

Daily Weather History Graph

Daily Weather History Graph

Search for Another Location

Airport or City:

Trip Planner

Search our weather history database for the weather conditions in past years. The results will help you decide how hot, cold, wet, or windy it might be!

Date:

Astronomy

Jul. 08, 2013 Rise Set
Actual Time 5:48 AM EDT 8:35 PM EDT
Civil Twilight 5:17 AM EDT 9:06 PM EDT
Nautical Twilight 4:37 AM EDT 9:46 PM EDT
Astronomical Twilight 3:52 AM EDT 10:31 PM EDT
Moon 6:15 AM EDT (7/8) 8:37 PM EDT (7/8)
Length of Visible Light 15h 49m
Length of Day
14h 46m
New Moon, 0% of the Moon is Illuminated
Jul 8
New Moon
Jul 15
First Quarter
Jul 22
Full
Jul 29
Last Quarter
Aug 6
New

Hourly Weather History & Observations

Time (EDT) Temp. Heat Index Dew Point Humidity Pressure Visibility Wind Dir Wind Speed Gust Speed Precip Events Conditions
12:03 AM 68.0 °F - 66.2 °F 94% 30.08 in 10.0 mi Calm Calm - N/A   Clear
12:21 AM 68.0 °F - 66.2 °F 94% 30.08 in 10.0 mi Calm Calm - N/A   Clear
12:42 AM 68.0 °F - 66.2 °F 94% 30.08 in 10.0 mi Calm Calm - N/A   Clear
1:03 AM 68.0 °F - 66.2 °F 94% 30.08 in 10.0 mi Calm Calm - N/A   Clear
1:21 AM 68.0 °F - 66.2 °F 94% 30.08 in 10.0 mi Calm Calm - N/A   Clear
1:42 AM 68.0 °F - 64.4 °F 88% 30.08 in 10.0 mi Calm Calm - N/A   Clear
2:03 AM 68.0 °F - 66.2 °F 94% 30.08 in 10.0 mi Calm Calm - N/A   Clear
2:24 AM 68.0 °F - 66.2 °F 94% 30.08 in 10.0 mi Calm Calm - N/A   Clear
2:42 AM 68.0 °F - 66.2 °F 94% 30.08 in 10.0 mi Calm Calm - N/A   Clear
3:03 AM 68.0 °F - 66.2 °F 94% 30.08 in 7.0 mi Calm Calm - N/A   Clear
3:24 AM 68.0 °F - 66.2 °F 94% 30.08 in 10.0 mi Calm Calm - N/A   Clear
3:42 AM 68.0 °F - 66.2 °F 94% 30.08 in 10.0 mi Calm Calm - N/A   Clear
4:03 AM 68.0 °F - 66.2 °F 94% 30.09 in 10.0 mi South 3.5 mph - N/A   Clear
4:24 AM 68.0 °F - 66.2 °F 94% 30.10 in 10.0 mi Calm Calm - N/A   Scattered Clouds
4:42 AM 68.0 °F - 66.2 °F 94% 30.10 in 10.0 mi Calm Calm - N/A   Mostly Cloudy
5:03 AM 68.0 °F - 66.2 °F 94% 30.09 in 7.0 mi Calm Calm - N/A   Mostly Cloudy
5:24 AM 68.0 °F - 68.0 °F 100% 30.09 in 5.0 mi Calm Calm - N/A   Mostly Cloudy
5:42 AM 68.0 °F - 68.0 °F 100% 30.09 in 7.0 mi Calm Calm - N/A   Mostly Cloudy
6:03 AM 68.0 °F - 68.0 °F 100% 30.10 in 7.0 mi Calm Calm - N/A   Mostly Cloudy
6:24 AM 69.8 °F - 68.0 °F 94% 30.10 in 7.0 mi SW 3.5 mph - N/A   Scattered Clouds
6:42 AM 69.8 °F - 68.0 °F 94% 30.10 in 7.0 mi Calm Calm - N/A   Scattered Clouds
7:03 AM 69.8 °F - 68.0 °F 94% 30.11 in 7.0 mi Calm Calm - N/A   Mostly Cloudy
7:24 AM 69.8 °F - 68.0 °F 94% 30.12 in 10.0 mi Calm Calm - N/A   Mostly Cloudy
7:42 AM 71.6 °F - 69.8 °F 94% 30.12 in 10.0 mi Calm Calm - N/A   Scattered Clouds
8:03 AM 71.6 °F - 69.8 °F 94% 30.13 in 10.0 mi Calm Calm - N/A   Clear
8:24 AM 73.4 °F - 69.8 °F 88% 30.12 in 10.0 mi WSW 4.6 mph - N/A   Clear
8:42 AM 75.2 °F - 69.8 °F 83% 30.12 in 10.0 mi West 6.9 mph - N/A   Clear
9:03 AM 75.2 °F - 69.8 °F 83% 30.12 in 10.0 mi WSW 4.6 mph - N/A   Clear
9:24 AM 75.2 °F - 69.8 °F 83% 30.12 in 10.0 mi SW 5.8 mph - N/A   Clear
9:42 AM 77.0 °F - 69.8 °F 78% 30.12 in 10.0 mi West 6.9 mph - N/A   Scattered Clouds
10:03 AM 77.0 °F - 69.8 °F 78% 30.12 in 10.0 mi West 6.9 mph - N/A   Clear
10:24 AM 78.8 °F - 69.8 °F 74% 30.13 in 10.0 mi WSW 6.9 mph - N/A   Clear
10:45 AM 78.8 °F - 69.8 °F 74% 30.13 in 10.0 mi West 9.2 mph - N/A   Clear
11:03 AM 80.6 °F 83.9 °F 69.8 °F 70% 30.13 in 10.0 mi West 9.2 mph - N/A   Clear
11:24 AM 80.6 °F 83.9 °F 69.8 °F 70% 30.12 in 10.0 mi West 8.1 mph - N/A   Scattered Clouds
11:45 AM 80.6 °F 83.2 °F 68.0 °F 65% 30.12 in 10.0 mi West 8.1 mph - N/A   Mostly Cloudy
12:03 PM 80.6 °F 83.2 °F 68.0 °F 65% 30.12 in 10.0 mi West 5.8 mph - N/A   Mostly Cloudy
12:24 PM 82.4 °F 85.4 °F 68.0 °F 62% 30.12 in 10.0 mi WSW 4.6 mph - N/A   Scattered Clouds
12:45 PM 82.4 °F 85.4 °F 68.0 °F 62% 30.11 in 10.0 mi West 4.6 mph - N/A   Scattered Clouds
1:03 PM 82.4 °F 85.4 °F 68.0 °F 62% 30.11 in 10.0 mi WSW 9.2 mph - N/A   Mostly Cloudy
1:24 PM 77.0 °F - 69.8 °F 78% 30.11 in 7.0 mi Calm Calm - N/A   Mostly Cloudy
1:45 PM 77.0 °F - 69.8 °F 78% 30.11 in 10.0 mi WSW 5.8 mph - N/A   Scattered Clouds
2:03 PM 77.0 °F - 71.6 °F 83% 30.11 in 10.0 mi WSW 5.8 mph - N/A   Scattered Clouds
2:24 PM 77.0 °F - 69.8 °F 78% 30.10 in 5.0 mi WSW 6.9 mph - N/A   Mostly Cloudy
2:45 PM 78.8 °F - 69.8 °F 74% 30.10 in 10.0 mi SW 5.8 mph - N/A   Scattered Clouds
3:03 PM 80.6 °F 83.9 °F 69.8 °F 70% 30.09 in 10.0 mi WSW 6.9 mph - N/A   Clear
3:24 PM 80.6 °F 82.7 °F 66.2 °F 61% 30.09 in 10.0 mi WSW 6.9 mph - N/A   Clear
3:45 PM 82.4 °F 85.4 °F 68.0 °F 62% 30.08 in 10.0 mi WSW 9.2 mph - N/A   Clear
4:03 PM 82.4 °F 84.6 °F 66.2 °F 58% 30.08 in 10.0 mi West 8.1 mph - N/A   Clear
4:24 PM 82.4 °F 85.4 °F 68.0 °F 62% 30.08 in 10.0 mi WSW 9.2 mph 17.3 mph N/A   Clear
4:45 PM 82.4 °F 84.6 °F 66.2 °F 58% 30.08 in 10.0 mi SW 6.9 mph - N/A   Scattered Clouds
5:03 PM 82.4 °F 84.6 °F 66.2 °F 58% 30.07 in 10.0 mi SW 9.2 mph - N/A   Scattered Clouds
5:24 PM 82.4 °F 83.9 °F 64.4 °F 54% 30.06 in 10.0 mi WSW 8.1 mph - N/A   Clear
5:45 PM 80.6 °F 82.3 °F 64.4 °F 58% 30.06 in 10.0 mi West 3.5 mph - N/A   Clear
6:03 PM 80.6 °F 82.7 °F 66.2 °F 61% 30.06 in 10.0 mi West 6.9 mph - N/A   Clear
6:24 PM 80.6 °F 82.7 °F 66.2 °F 61% 30.06 in 10.0 mi WSW 5.8 mph - N/A   Clear
6:45 PM 80.6 °F 83.2 °F 68.0 °F 65% 30.07 in 10.0 mi WSW 4.6 mph - N/A   Scattered Clouds
7:03 PM 78.8 °F - 69.8 °F 74% 30.07 in 10.0 mi Calm Calm - N/A   Clear
7:24 PM 78.8 °F - 69.8 °F 74% 30.07 in 10.0 mi SSW 3.5 mph - N/A   Clear
7:45 PM 78.8 °F - 69.8 °F 74% 30.08 in 10.0 mi Calm Calm - N/A   Clear
8:06 PM 77.0 °F - 71.6 °F 83% 30.08 in 10.0 mi SSW 3.5 mph - N/A   Scattered Clouds
8:24 PM 75.2 °F - 69.8 °F 83% 30.08 in 10.0 mi SSW 3.5 mph - N/A   Scattered Clouds
8:45 PM 73.4 °F - 69.8 °F 88% 30.09 in 10.0 mi Calm Calm - N/A   Clear
9:06 PM 73.4 °F - 69.8 °F 88% 30.10 in 10.0 mi Calm Calm - N/A   Clear
9:24 PM 71.6 °F - 69.8 °F 94% 30.10 in 7.0 mi Calm Calm - N/A   Clear
9:45 PM 71.6 °F - 69.8 °F 94% 30.11 in 7.0 mi Calm Calm - N/A   Clear
10:06 PM 71.6 °F - 69.8 °F 94% 30.11 in 7.0 mi Calm Calm - N/A   Scattered Clouds
10:24 PM 71.6 °F - 69.8 °F 94% 30.11 in 7.0 mi Calm Calm - N/A   Mostly Cloudy
10:45 PM 71.6 °F - 69.8 °F 94% 30.12 in 7.0 mi Calm Calm - N/A   Scattered Clouds
11:06 PM 71.6 °F - 68.0 °F 88% 30.12 in 5.0 mi Calm Calm - N/A   Clear
11:24 PM 69.8 °F - 68.0 °F 94% 30.12 in 5.0 mi Calm Calm - N/A   Clear
11:45 PM 69.8 °F - 68.0 °F 94% 30.11 in 5.0 mi Calm Calm - N/A   Clear